Wind_Speed
19 21 21 20 20 19 19 18 16 14 12 11 10 7 4 6 9 12 13 15 15 15 15 15 16 16 16 17 17 17 15 13 13 12 13 14 15 16 16 16 15 15 15 15 15 14 13 13 12 11 10 9 7 6 6 5 5 4 3 3 4 3 2 2 3 5 5 4 5 5 6 6 6 6 6 6 6 6 5 5 5 5 5 5 5
17 18 19 19 19 18 18 18 17 16 14 14 14 12 8 6 6 8 11 14 14 14 15 15 15 15 15 16 17 19 18 16 14 13 14 15 16 17 18 18 17 17 16 16 16 15 14 14 13 12 11 10 8 7 7 6 6 5 4 4 4 3 3 3 3 5 5 4 4 5 6 6 6 6 5 5 6 6 5 5 5 5 5 5 5
16 16 16 16 17 17 17 16 16 16 14 14 14 13 11 10 9 8 9 12 12 13 14 13 12 12 14 15 16 18 20 19 17 15 16 17 18 19 19 20 19 19 18 18 17 16 16 15 14 13 12 11 10 9 8 8 7 6 6 5 5 5 4 4 5 5 4 4 4 4 6 6 6 6 5 4 5 5 5 5 5 5 5 4 4
15 15 15 15 15 15 15 14 14 15 14 14 13 12 11 11 11 11 11 11 11 13 14 13 12 13 14 15 16 17 18 20 19 17 18 19 19 20 21 22 22 21 21 20 19 18 18 17 15 14 13 13 12 11 10 10 9 8 7 8 7 6 6 5 5 5 5 5 5 5 5 6 5 5 5 5 5 5 4 5 5 5 4 4 4
14 14 14 15 15 14 14 13 12 13 13 13 13 12 12 13 13 13 13 13 11 10 10 12 14 15 16 15 15 17 18 19 19 19 19 19 20 21 22 23 24 24 23 22 22 21 19 18 17 16 15 15 14 13 13 12 12 11 10 10 10 8 7 7 6 5 5 5 5 5 6 6 5 4 4 4 5 5 4 4 5 5 4 4 5
13 13 13 14 14 14 15 14 13 12 12 12 12 12 11 12 14 14 15 14 13 10 8 9 12 14 17 17 17 17 19 20 20 20 20 20 21 21 22 23 25 26 25 25 24 23 21 20 19 18 17 17 16 16 15 14 14 14 12 12 12 11 9 8 7 6 5 5 5 5 6 7 6 5 4 3 4 4 4 4 4 4 4 4 4
13 13 13 13 13 14 15 15 14 14 13 12 12 12 11 12 13 13 15 15 14 12 10 9 11 13 15 17 18 18 19 21 21 21 21 22 22 21 22 23 25 26 27 27 26 24 23 22 21 20 19 19 19 18 17 17 16 16 15 14 14 13 11 10 9 8 6 6 6 6 7 7 7 6 5 4 4 4 4 4 4 4 4 4 4
14 13 12 12 13 14 14 15 15 15 15 13 12 12 12 12 12 12 13 14 14 14 14 12 12 13 14 14 16 18 19 20 21 23 24 23 23 23 23 23 24 26 28 28 28 27 25 24 23 22 21 21 20 20 20 19 17 17 17 16 15 15 13 12 11 10 8 7 6 6 7 7 7 6 6 6 6 5 4 4 5 5 4 4 5
14 13 13 13 13 13 14 14 15 15 16 15 14 14 14 13 12 12 13 13 13 14 13 13 13 12 13 12 12 14 17 19 19 21 23 24 24 24 24 25 26 26 28 29 30 29 28 27 26 24 23 22 22 22 22 21 19 19 19 18 17 16 15 13 12 11 10 9 8 7 7 8 7 7 7 7 7 7 6 6 6 6 6 6 6
14 14 14 14 14 14 13 14 14 15 16 17 16 16 16 16 14 13 14 14 13 13 12 11 12 12 12 12 12 12 13 16 17 20 21 23 25 26 26 27 29 28 29 30 30 31 30 29 28 27 26 24 24 24 23 22 21 21 20 20 18 17 16 15 14 13 12 11 10 9 9 8 8 8 9 8 8 8 8 8 7 7 7 7 7
14 14 15 16 16 16 15 15 15 15 16 16 17 17 17 18 17 15 15 15 14 14 13 12 12 12 13 13 13 13 12 13 14 17 20 22 24 27 28 29 31 31 30 30 30 32 32 31 30 29 28 26 25 25 25 24 24 23 22 21 20 19 18 17 15 14 13 12 12 11 11 10 10 10 11 10 10 9 9 9 9 9 8 8 8
13 13 14 15 16 16 17 16 16 16 16 16 16 17 18 19 19 18 17 17 17 15 15 14 14 15 15 15 15 15 14 13 13 15 17 20 22 25 28 31 32 32 31 30 31 33 33 32 32 31 29 28 27 27 27 26 25 25 24 23 22 20 19 19 17 16 15 14 13 13 13 12 11 12 12 11 11 10 10 10 10 10 10 9 10
14 14 14 14 14 15 16 17 17 17 17 17 17 17 17 18 19 20 19 19 19 17 16 16 16 17 17 17 17 17 16 15 15 15 15 17 21 24 27 31 33 33 32 32 32 33 34 33 34 33 31 29 28 28 28 27 26 25 25 24 24 23 21 20 19 18 16 15 14 14 14 13 12 12 12 12 12 12 11 11 11 11 10 11 11
15 15 14 14 15 15 16 16 17 18 18 19 18 18 18 18 18 19 19 20 20 20 19 18 17 17 16 17 18 19 19 18 17 16 16 16 18 22 25 29 32 33 34 34 33 34 34 33 34 34 33 31 29 28 28 27 26 25 25 25 25 25 23 21 20 19 18 17 15 15 15 14 14 13 13 13 14 13 12 12 12 12 11 11 11
16 15 15 15 15 15 16 16 17 18 18 19 20 20 21 21 20 20 20 20 20 21 21 20 20 19 17 17 18 20 21 21 20 19 18 17 17 19 23 27 30 33 35 35 35 35 34 33 33 33 33 31 30 29 28 27 26 24 24 26 26 26 25 23 22 21 20 18 17 16 15 15 15 15 15 15 15 14 13 13 14 13 13 13 12
17 17 16 16 16 17 17 17 18 18 19 19 20 20 21 22 22 23 23 22 22 22 22 22 21 21 21 19 19 20 22 23 22 21 20 20 18 18 20 24 28 33 36 36 35 35 34 33 33 33 33 32 31 30 29 28 26 25 25 26 27 27 26 24 23 22 21 20 19 18 17 16 16 16 16 16 16 16 15 14 15 15 14 14 14
19 19 19 19 19 19 20 20 20 20 21 21 21 21 21 22 23 23 24 24 25 25 26 25 24 23 23 22 21 21 22 23 23 22 22 22 21 20 20 22 26 31 35 37 36 35 35 34 34 34 33 34 33 32 30 29 27 26 26 26 28 28 26 25 24 23 23 22 20 20 19 17 16 17 17 17 17 17 16 16 16 16 16 16 16
21 21 21 21 21 22 22 22 22 23 23 23 23 23 23 23 23 23 24 24 25 25 27 28 28 28 27 25 24 23 22 23 24 24 22 22 23 23 21 22 24 28 33 37 37 36 36 36 36 35 34 34 34 33 31 29 28 27 27 27 28 28 26 26 24 23 24 23 22 21 21 19 18 17 18 18 18 18 18 18 18 18 18 17 16
22 23 23 24 24 24 24 24 24 25 25 25 25 25 25 24 24 24 25 25 25 25 25 26 28 29 30 30 29 27 25 24 25 25 24 23 24 24 23 23 24 26 30 35 38 38 38 38 36 36 35 35 35 33 31 30 28 27 27 28 28 28 27 26 26 24 24 23 23 23 22 22 20 18 19 19 19 19 19 19 20 20 19 18 17
23 24 24 25 25 25 25 26 26 27 27 27 26 27 27 27 27 27 27 27 27 27 27 27 28 29 30 31 31 31 30 28 27 27 25 24 25 25 25 24 24 26 28 33 37 40 41 39 37 36 36 35 34 33 32 31 30 29 28 28 29 28 27 27 26 25 24 23 23 24 24 24 22 20 20 20 20 20 20 21 21 21 20 19 18
23 24 25 26 26 25 26 26 27 27 28 28 29 29 29 29 29 29 30 30 30 30 30 30 30 30 31 32 32 33 33 31 29 28 27 26 25 26 26 25 26 26 28 31 35 39 43 41 38 37 37 35 34 33 33 33 32 30 29 29 29 28 27 27 27 26 25 24 24 24 24 24 23 22 21 22 22 21 21 21 22 22 21 20 19
23 24 25 25 26 27 27 28 29 29 29 29 30 30 30 30 30 31 32 32 32 32 32 32 33 33 33 33 33 33 33 33 31 30 29 28 26 27 27 27 27 27 27 30 33 38 43 43 40 37 37 37 36 35 35 35 33 32 31 30 30 29 28 28 27 26 26 25 25 24 24 24 24 23 23 23 23 22 22 22 22 22 22 21 20
23 23 24 25 26 27 28 29 31 32 32 32 32 32 33 33 33 33 34 34 34 34 34 34 34 34 35 35 35 34 33 33 32 30 30 29 28 28 28 28 28 28 27 28 33 38 42 43 40 38 38 38 37 37 37 36 35 34 33 32 31 30 29 29 28 28 28 27 26 25 25 25 24 23 24 24 24 23 23 23 23 23 22 21 21
24 25 26 26 27 28 28 29 30 31 32 33 34 35 36 37 37 37 37 37 36 36 36 35 35 35 35 36 35 35 34 33 33 31 30 30 29 28 29 30 30 29 28 28 32 37 41 42 41 41 42 40 39 38 38 37 36 35 35 34 33 32 31 30 30 30 29 28 27 25 26 26 25 24 24 24 24 24 24 24 25 24 23 22 22
26 28 28 28 28 28 29 29 30 31 32 34 35 37 38 40 40 40 39 38 37 37 36 36 35 35 35 36 36 36 35 34 33 32 31 31 30 29 30 31 31 30 29 28 31 36 39 40 40 42 43 41 39 39 39 38 37 37 37 36 34 33 32 32 31 31 30 29 28 26 26 26 25 24 25 25 24 25 25 26 26 26 25 24 23
27 28 29 30 30 30 30 30 31 32 33 35 37 38 39 40 40 40 39 38 36 35 35 35 35 34 34 35 36 36 35 35 34 33 32 31 31 30 30 30 31 31 30 29 30 34 38 38 39 41 41 40 40 40 39 39 39 38 38 36 34 33 33 33 32 31 30 30 28 27 27 26 25 25 25 25 25 25 25 26 27 27 26 25 25
27 28 30 30 31 32 31 32 32 34 35 37 38 39 39 39 39 38 37 35 33 32 32 33 33 33 33 34 35 35 35 35 34 34 33 32 31 31 30 31 31 31 30 29 29 33 37 39 40 41 41 40 41 41 41 40 40 39 38 37 35 34 33 33 32 31 31 30 28 27 26 26 25 25 26 26 26 25 25 26 27 28 28 26 26
28 29 30 31 32 33 33 34 35 36 37 38 39 39 39 38 36 34 32 32 30 29 29 29 30 31 31 31 32 34 35 35 34 34 33 32 31 32 31 31 31 31 31 30 29 31 36 40 42 42 42 42 43 43 42 42 41 40 39 38 37 35 34 33 32 31 30 29 28 27 26 26 25 25 26 26 27 26 25 26 27 28 29 28 27
29 30 31 32 33 34 35 36 37 37 38 37 38 38 37 36 34 31 29 29 29 28 27 27 28 28 29 29 29 30 32 32 32 32 33 32 32 32 32 31 31 33 32 31 30 30 34 39 43 44 44 44 44 44 44 43 41 40 40 39 38 37 35 34 33 32 31 30 28 27 26 26 26 26 26 26 27 27 26 26 28 29 29 28 28
31 31 32 33 33 34 35 36 37 38 38 37 36 35 34 32 31 29 28 28 28 27 27 26 26 26 27 27 27 27 28 29 30 30 31 31 31 32 32 31 31 33 34 32 31 30 31 36 41 44 44 44 45 45 45 44 42 41 41 40 40 38 37 36 35 33 32 31 29 28 28 27 27 27 27 27 27 28 27 27 28 28 28 28 27
31 32 32 33 33 34 35 36 37 38 37 36 34 33 31 30 29 28 29 28 28 27 26 26 26 26 26 26 25 25 25 26 27 28 29 30 30 31 31 31 31 33 34 34 32 30 30 34 38 41 43 43 44 45 46 46 44 43 42 42 42 41 39 38 37 35 34 33 31 30 30 29 28 28 28 28 28 28 29 28 28 28 28 27 27
31 32 32 32 33 34 35 36 37 37 37 36 34 32 30 29 29 29 29 28 28 27 26 26 26 26 25 25 24 24 24 24 24 25 27 29 30 30 30 30 30 32 35 35 34 31 31 33 34 36 40 42 43 45 47 47 47 45 44 43 43 43 41 39 38 37 36 35 34 33 32 31 30 29 30 30 29 29 29 29 28 28 27 27 27
31 31 32 32 33 34 36 37 37 37 37 36 34 32 30 30 29 29 29 29 28 27 26 26 25 25 25 24 23 23 23 23 23 23 24 27 29 29 29 29 29 31 35 36 36 34 32 32 32 33 36 39 42 45 46 48 48 47 45 45 44 43 42 40 39 38 38 37 36 35 34 33 31 30 30 31 30 30 30 29 29 28 28 28 28
30 31 31 32 33 34 36 37 37 38 37 36 35 32 31 31 30 29 29 29 28 28 27 26 26 26 25 24 23 23 23 23 23 23 23 25 27 28 29 29 28 30 33 36 38 36 33 32 31 31 32 36 39 43 45 47 48 47 46 46 45 44 43 42 40 40 39 39 38 36 35 34 33 32 31 32 32 31 31 30 29 29 29 29 29
30 31 32 32 33 35 36 37 38 38 37 36 35 33 32 32 31 30 29 29 28 28 28 28 28 29 29 28 26 24 24 24 23 23 23 23 25 27 28 29 28 28 31 35 38 38 36 33 32 31 31 32 35 39 42 44 46 46 47 47 47 45 44 43 42 41 41 40 39 38 36 35 34 33 33 33 33 33 32 31 31 30 30 30 30
30 31 32 33 34 36 37 37 38 38 37 36 34 33 33 32 31 30 29 29 29 29 30 31 32 33 33 33 31 29 27 26 25 24 23 23 24 26 27 28 28 29 29 33 37 40 39 36 34 33 31 30 31 34 38 42 44 45 46 46 46 46 45 44 43 43 43 43 42 41 38 36 35 35 35 35 35 35 34 33 32 31 31 31 30
31 32 33 34 35 36 37 37 37 37 36 35 34 33 32 31 30 29 29 29 30 31 32 34 34 33 33 33 33 32 30 29 28 26 25 23 24 26 27 27 27 28 29 30 34 39 40 39 36 35 33 31 30 31 33 38 42 44 45 45 45 45 46 46 45 44 45 45 44 43 41 40 38 37 37 37 37 37 36 35 33 32 31 31 31
32 33 34 35 36 37 37 37 37 36 35 34 33 32 31 30 29 29 29 29 31 33 33 33 32 30 30 30 30 30 30 30 29 28 27 25 24 25 26 27 27 27 28 29 31 35 40 41 39 37 35 33 32 30 30 33 37 41 43 43 43 44 45 45 46 46 46 46 45 44 43 42 41 40 40 40 40 39 37 35 34 33 32 32 31
33 34 34 35 36 37 37 37 37 36 35 34 33 32 31 29 28 29 30 31 33 34 33 31 30 29 29 29 29 29 29 29 29 29 29 27 25 24 25 26 26 27 28 29 29 32 37 41 41 39 37 35 33 32 30 30 32 35 37 39 41 42 43 44 45 46 47 47 46 46 45 44 43 42 42 42 41 41 39 37 37 36 34 33 33
34 34 34 35 36 36 37 37 36 35 35 34 33 32 31 30 29 29 31 33 34 34 32 31 31 30 30 30 29 28 28 27 27 28 29 29 28 25 25 25 25 26 27 28 29 30 34 39 42 41 39 36 34 33 31 29 29 30 31 33 36 38 41 44 45 46 47 47 47 46 46 46 45 45 45 44 43 43 41 40 38 37 35 35 37
34 34 34 35 36 36 36 37 36 35 34 34 33 32 32 31 30 30 32 33 34 33 32 31 31 30 29 29 28 28 27 26 26 26 27 29 30 28 26 25 25 25 27 28 29 29 32 37 41 42 40 37 35 33 32 30 29 29 28 29 31 34 38 41 44 45 46 46 46 46 46 46 47 46 46 46 45 44 43 41 39 37 37 38 39
33 33 34 34 35 36 36 36 36 35 34 34 33 32 32 31 31 31 32 33 34 33 32 31 31 30 29 28 27 27 26 26 26 25 26 27 30 30 29 28 26 25 26 28 29 29 30 34 40 42 41 38 36 34 33 31 31 30 29 28 29 32 35 38 40 42 43 44 46 47 48 48 48 48 47 47 46 45 44 42 39 38 38 40 40
33 33 33 34 35 35 36 36 36 35 34 34 33 33 32 32 32 32 33 34 34 33 32 32 31 30 29 28 27 26 26 26 26 26 26 26 28 29 31 31 28 26 27 28 29 29 29 31 37 41 41 39 37 35 34 33 31 30 30 30 30 31 33 35 36 37 39 40 43 45 48 50 51 50 48 47 47 47 46 43 41 40 40 40 40
32 32 33 34 34 35 35 36 36 35 34 35 34 33 33 32 32 32 33 33 33 33 33 33 31 30 29 28 27 27 26 26 26 26 26 27 27 28 30 32 31 29 28 28 29 29 29 30 34 39 41 40 37 36 35 34 32 31 31 31 31 31 32 33 34 35 36 36 37 39 43 46 49 50 50 48 47 47 46 45 43 43 42 42 43
32 32 33 33 34 34 35 35 35 35 34 35 35 34 33 33 33 33 33 33 33 33 33 33 32 30 29 28 27 27 26 26 26 26 27 27 28 27 28 30 32 31 29 29 29 29 29 29 32 37 41 42 39 37 35 35 33 32 32 32 31 31 32 33 33 34 34 34 34 35 37 39 42 44 46 47 46 46 47 46 45 45 45 45 45
31 32 33 33 34 34 34 35 35 35 34 34 35 34 34 33 33 33 33 33 33 33 32 32 32 31 30 28 28 27 27 26 26 26 26 27 27 27 28 29 31 32 31 30 30 29 29 29 31 35 40 43 41 38 36 35 34 34 34 33 32 31 31 32 33 33 33 33 34 34 34 35 35 36 38 40 42 43 45 45 45 45 45 46 46
31 32 32 33 34 34 34 34 34 34 34 34 34 34 34 34 34 34 33 33 33 33 32 32 32 32 31 29 28 27 26 26 26 26 26 26 27 27 27 28 30 31 31 30 30 30 29 29 30 34 39 42 43 40 37 35 35 35 35 33 32 30 30 30 32 33 34 34 33 33 33 33 34 34 34 35 36 39 41 42 42 43 44 44 45
31 31 32 33 33 33 34 34 34 33 33 33 33 34 34 34 34 34 34 33 33 33 33 32 32 32 31 30 28 26 25 25 25 25 25 25 25 25 25 27 28 29 30 30 30 29 29 29 30 33 37 41 42 41 39 37 36 35 34 33 31 29 28 29 30 32 33 34 33 33 32 32 34 34 34 34 35 37 37 38 39 41 42 43 43
30 31 32 33 33 33 33 33 33 33 33 33 33 33 34 34 34 34 34 34 33 33 33 33 32 32 30 29 27 26 24 24 24 24 24 24 24 23 23 25 26 27 28 28 29 29 28 28 29 32 37 40 41 40 39 37 35 35 34 32 30 29 28 29 29 30 31 33 33 32 31 31 32 33 33 34 35 37 38 38 39 40 41 42 42
30 31 32 33 33 33 33 33 32 32 32 32 32 33 33 33 34 34 34 34 33 33 32 32 32 31 30 28 27 26 24 23 23 22 22 22 22 22 22 23 24 25 26 26 27 28 28 28 29 32 36 39 40 39 37 36 35 34 34 32 30 28 28 28 29 30 30 31 33 33 32 31 30 30 30 30 31 33 36 36 36 37 38 38 37
31 31 32 33 34 33 33 33 32 32 32 32 32 33 33 33 33 34 34 34 33 32 31 32 32 32 29 27 26 25 24 23 22 22 21 21 21 21 21 22 23 24 24 24 25 27 27 28 29 30 33 36 38 38 36 35 33 33 33 32 30 27 27 27 28 29 29 29 30 31 31 30 29 28 29 27 25 25 26 27 29 32 32 31 32
Wind_Direction
51 54 53 52 50 49 48 48 46 43 41 36 26 7 319 270 258 259 266 266 260 257 255 247 242 240 242 246 249 250 251 251 250 243 236 239 241 237 234 230 224 221 218 212 209 208 208 207 206 206 202 200 200 205 214 211 205 203 193 171 154 155 190 199 125 119 117 104 106 114 122 135 138 138 148 162 172 181 188 186 182 189 201 211 218
47 51 52 51 48 45 43 44 44 44 46 44 39 34 25 357 313 290 284 280 275 268 261 250 240 238 243 249 253 254 252 250 249 244 236 234 234 231 228 227 226 225 223 218 215 213 212 212 211 211 210 209 207 208 219 226 222 217 212 209 199 190 200 202 164 141 141 136 132 134 129 132 137 138 143 153 156 161 170 175 175 180 189 200 208
39 40 42 45 47 45 42 41 39 38 39 37 36 34 31 20 7 352 319 296 282 269 262 257 251 250 255 260 262 259 252 249 247 242 236 233 231 230 227 225 224 224 224 221 218 217 216 217 216 216 217 218 217 214 221 232 235 233 234 232 223 218 221 214 185 161 161 157 153 154 141 132 131 131 138 152 152 152 161 169 172 175 183 193 204
31 29 29 30 34 38 39 39 36 35 34 34 33 28 20 13 12 16 5 341 310 280 271 274 270 265 267 268 268 263 255 250 246 242 239 237 233 230 228 226 223 223 223 222 220 219 219 220 220 220 221 224 225 222 223 232 238 241 249 255 247 232 232 234 206 173 172 168 163 168 154 141 132 127 134 151 154 151 160 174 176 178 190 200 208
24 21 21 20 20 21 27 31 32 31 31 32 32 25 16 10 9 15 17 9 351 317 292 285 278 273 275 275 271 267 260 254 250 248 248 248 243 237 233 229 226 224 223 222 220 219 220 221 221 222 224 226 229 229 227 231 238 239 244 257 261 252 241 243 229 194 179 175 176 181 170 157 151 144 140 148 155 153 158 173 175 174 187 205 210
17 15 14 14 12 11 12 19 24 25 24 25 23 18 13 8 6 11 13 7 359 347 325 300 291 284 279 273 270 270 264 257 254 253 253 252 250 248 243 236 232 228 225 223 222 219 219 220 222 223 224 226 228 232 232 232 236 238 239 248 258 260 255 250 245 223 197 184 184 186 177 169 166 168 165 158 161 161 160 167 171 172 179 201 216
7 8 9 8 7 5 3 5 10 15 18 20 18 13 9 6 6 8 8 2 352 342 330 316 312 308 295 278 267 264 262 258 254 252 251 251 251 250 248 243 240 236 231 227 224 221 220 220 221 223 224 226 228 231 234 234 235 238 240 243 250 257 258 256 252 241 225 205 193 186 183 181 173 171 177 179 178 178 174 171 174 178 181 199 217
357 0 4 3 2 359 357 357 357 360 5 9 11 9 7 6 5 3 358 354 347 338 330 322 317 317 314 297 273 262 262 263 258 252 250 251 249 245 244 243 242 242 239 235 231 225 222 221 222 223 224 226 228 230 234 237 237 238 241 242 245 250 253 255 254 246 238 227 214 201 195 195 187 178 184 189 188 191 191 185 183 186 192 204 213
350 352 354 356 357 357 355 353 350 349 351 354 356 359 360 359 1 357 349 344 339 336 331 326 322 318 317 311 290 270 263 264 262 254 249 248 247 243 241 239 237 236 238 239 238 233 228 224 223 224 224 225 228 231 235 239 239 239 241 243 243 246 248 251 252 248 242 235 228 221 213 212 207 196 197 198 194 192 194 192 190 191 196 205 212
346 346 346 348 350 352 353 350 346 344 342 342 344 346 347 349 351 350 344 340 337 334 329 322 321 319 315 312 303 288 273 266 262 257 253 249 246 244 241 239 235 232 232 235 238 239 236 230 226 225 225 226 228 233 238 240 242 242 243 245 244 245 246 247 248 246 243 238 234 233 229 226 224 214 210 209 202 197 196 195 193 193 196 204 212
339 339 340 341 342 344 346 345 343 340 337 335 333 333 334 336 339 340 337 334 333 331 327 318 314 313 309 305 302 297 291 283 272 262 257 253 249 246 243 241 237 234 231 230 232 237 237 235 231 228 227 228 229 233 237 240 244 246 247 248 247 245 245 245 244 243 240 237 234 235 235 233 231 224 220 215 207 204 203 201 200 200 200 205 212
332 334 336 336 334 335 336 337 336 334 333 331 327 325 324 324 326 328 327 327 327 325 322 317 312 310 306 301 300 297 293 293 289 276 264 255 251 249 247 244 239 237 234 230 229 231 234 234 235 234 231 229 230 233 237 239 243 247 249 250 250 248 246 244 244 242 239 235 231 231 233 233 231 228 226 220 212 210 209 205 205 207 208 211 214
328 332 334 332 330 330 328 328 328 327 326 326 323 320 318 316 316 317 318 318 319 318 314 311 310 311 309 304 300 298 293 289 287 284 275 262 254 251 250 245 241 239 236 233 230 229 230 232 236 238 235 231 231 233 237 239 242 246 249 250 252 252 249 246 244 243 241 238 233 230 232 233 232 230 230 227 219 215 214 212 209 208 209 213 215
328 329 329 329 328 326 324 323 323 322 321 320 318 315 314 312 310 309 309 309 310 310 308 306 304 304 305 303 301 299 296 291 285 282 280 273 263 255 252 248 243 240 237 235 234 230 228 230 234 238 240 236 233 234 236 238 241 244 247 249 251 252 252 249 246 245 244 243 239 234 232 233 232 231 232 231 225 220 217 216 215 212 210 212 216
326 325 324 324 323 322 321 321 320 319 318 316 314 312 311 310 308 305 304 302 301 301 302 302 302 300 298 298 298 297 295 292 288 283 279 277 273 262 256 250 244 240 237 237 238 233 229 230 231 235 240 241 239 237 236 238 239 241 243 245 248 251 253 252 250 248 247 247 244 240 236 234 232 231 231 231 228 224 220 218 219 217 215 216 218
326 325 324 323 322 322 321 320 320 318 317 315 313 311 309 309 308 306 305 302 300 298 297 296 296 297 296 295 294 294 292 290 288 285 280 277 276 270 261 254 247 241 238 238 238 235 232 232 231 232 236 240 241 240 238 238 237 237 239 241 245 249 252 254 254 253 252 250 249 246 242 237 233 232 232 230 229 227 223 220 220 219 218 219 222
324 324 324 324 324 324 323 322 320 318 316 314 312 311 309 307 305 304 304 302 301 300 299 298 296 294 293 293 292 291 289 288 286 283 279 276 275 274 268 260 252 244 240 237 236 234 234 234 234 232 233 236 240 241 239 238 237 236 236 237 240 244 248 252 255 256 256 254 252 250 247 243 238 236 235 231 229 228 227 224 221 219 220 222 223
321 322 323 324 323 324 323 321 319 318 316 315 314 312 310 307 305 303 301 299 298 297 297 297 297 296 294 292 291 289 288 288 286 283 278 273 271 272 271 267 259 250 243 237 234 234 233 234 234 233 231 233 237 240 241 240 239 237 236 237 238 240 243 247 250 253 255 256 256 254 252 249 244 241 239 235 230 229 228 227 223 221 222 223 222
319 321 323 323 324 324 323 321 320 319 318 317 315 314 312 309 307 304 302 299 296 294 292 291 291 291 292 292 291 291 289 288 286 284 279 272 267 267 268 268 264 256 247 239 233 231 231 231 233 232 231 232 234 237 240 240 240 239 239 238 239 240 241 243 245 246 249 253 256 257 256 254 250 246 244 240 236 232 230 228 227 225 226 226 224
319 320 321 321 322 322 322 321 320 320 319 318 316 315 313 311 309 306 303 300 298 295 292 289 287 285 286 287 288 289 289 288 286 284 280 273 267 264 264 266 264 258 250 242 235 231 229 228 229 231 230 230 232 234 236 237 238 238 239 240 240 240 241 243 244 243 244 246 250 254 257 257 254 250 247 245 242 239 235 231 230 230 230 231 229
318 318 319 319 320 321 321 321 321 320 320 319 317 315 313 311 309 307 304 301 299 296 293 291 288 285 283 283 284 285 286 287 285 283 280 275 268 264 261 262 262 257 250 244 239 234 230 226 225 229 231 229 230 232 233 234 235 236 237 239 240 241 241 242 243 244 243 244 244 247 252 256 257 254 251 248 246 244 242 238 236 235 235 235 234
315 315 316 319 321 323 323 323 322 321 320 318 316 315 314 312 310 308 305 302 299 297 294 291 289 286 284 282 281 281 282 283 282 280 279 276 270 264 260 258 260 259 252 244 239 236 232 226 222 225 230 229 227 229 231 232 233 234 235 237 238 239 240 241 242 243 243 244 244 245 247 250 254 255 254 251 248 246 246 245 243 241 239 238 237
313 314 317 320 322 323 323 323 322 321 320 319 318 316 315 314 312 310 307 304 301 297 294 291 288 285 284 282 280 279 278 278 278 277 276 274 270 264 260 256 256 259 257 246 238 236 233 227 222 223 228 229 227 227 230 231 231 232 233 234 235 236 238 239 241 242 243 243 243 244 245 246 247 250 252 252 250 247 247 248 247 246 244 242 239
314 318 321 322 323 322 321 321 321 320 320 320 319 319 317 316 314 312 309 306 302 298 294 290 286 283 281 279 278 277 275 274 273 273 272 271 269 264 258 255 253 255 256 248 238 234 232 228 225 224 226 228 227 227 229 231 232 232 232 233 233 233 234 236 238 240 242 242 241 241 243 244 244 244 247 250 251 249 248 249 249 249 248 246 243
320 321 323 323 322 321 321 321 321 320 320 320 320 319 318 317 316 314 311 308 303 299 294 289 284 280 277 275 273 273 272 270 269 269 268 267 266 263 257 253 251 252 254 250 239 232 230 230 228 227 227 228 229 229 229 229 231 233 233 234 233 233 232 234 235 237 240 241 241 239 240 241 242 243 245 246 248 249 249 249 250 250 250 249 248
322 322 322 322 322 322 322 322 322 322 322 321 321 320 319 318 316 314 312 309 305 300 295 290 284 279 275 272 270 268 268 267 266 265 265 264 263 261 256 252 251 251 252 253 245 235 230 229 228 228 228 229 230 231 231 230 231 233 235 236 236 236 235 234 235 236 238 240 240 239 239 239 240 242 244 244 244 246 247 249 251 252 252 252 252
321 322 322 322 322 323 324 323 323 323 323 322 321 320 319 318 317 315 313 311 308 304 299 293 287 282 276 272 269 267 265 264 264 263 263 261 259 259 255 249 248 250 252 255 251 240 231 227 226 227 228 229 230 231 232 232 232 233 235 237 238 238 238 237 236 235 237 238 239 240 240 239 239 240 242 244 243 242 244 247 250 253 254 254 254
321 322 323 323 324 325 325 325 325 324 323 323 321 320 319 318 317 316 314 314 314 312 307 300 294 288 283 277 272 270 267 264 263 261 261 259 257 256 254 249 244 245 248 250 250 245 235 227 224 225 227 230 231 232 233 233 232 233 234 236 237 238 240 240 238 237 237 237 237 237 238 239 239 238 239 241 242 241 242 245 249 252 254 255 256
323 323 324 324 325 326 326 325 325 324 324 323 321 320 319 318 317 317 317 317 316 316 313 309 304 298 293 287 281 276 272 268 264 260 258 257 255 253 253 250 243 240 242 244 247 249 242 232 226 225 226 229 232 234 234 233 232 233 234 235 236 236 239 241 241 239 239 238 236 234 235 238 240 240 239 239 241 241 240 242 246 250 253 255 257
324 324 324 324 325 325 325 325 324 323 323 322 321 320 318 316 316 316 316 316 315 314 313 311 307 304 300 297 292 286 280 275 270 264 258 255 255 253 251 250 244 239 239 241 244 247 245 238 231 229 228 228 229 231 233 233 233 233 234 235 236 236 238 240 241 241 240 238 237 234 233 235 237 240 240 239 239 241 240 241 243 247 250 253 256
323 323 323 323 324 324 324 323 323 322 322 321 320 318 316 313 313 314 313 313 312 311 309 307 305 303 300 299 297 293 288 282 276 270 262 256 254 253 251 250 245 238 236 237 239 242 243 239 234 231 230 229 229 228 229 230 230 231 233 234 235 237 237 238 239 241 240 238 237 236 234 234 234 237 239 240 240 240 241 241 241 244 247 250 253
322 322 322 323 323 323 322 322 321 321 321 320 318 316 313 311 311 311 311 311 310 309 307 305 303 301 299 297 295 293 290 286 281 275 268 261 256 254 252 251 246 239 234 233 235 238 241 241 236 231 229 230 230 229 228 228 229 230 230 232 233 235 236 236 237 239 240 238 237 236 236 235 234 235 237 240 240 240 241 241 241 242 245 247 249
321 322 322 322 322 321 321 321 321 321 320 319 317 314 311 309 309 308 308 307 307 306 306 305 303 301 299 297 294 291 287 285 282 277 272 266 260 256 252 251 248 242 236 232 232 234 237 241 241 235 229 227 228 229 229 229 229 230 230 231 233 234 234 234 235 236 237 237 237 237 237 237 237 236 236 238 240 241 241 241 241 241 243 245 247
320 321 321 321 320 320 320 321 321 320 319 318 316 313 310 308 307 306 304 303 302 303 303 303 302 300 299 298 296 292 287 284 280 277 273 268 264 259 254 250 249 245 240 235 232 233 234 237 241 240 234 229 228 229 229 230 231 231 232 233 233 234 234 235 236 237 236 236 237 238 238 239 239 238 237 237 239 240 240 240 240 240 241 243 246
320 320 320 320 319 320 321 321 321 320 319 318 316 313 309 307 306 305 303 302 301 301 300 299 298 297 297 295 294 291 288 284 281 276 271 268 265 262 258 252 249 246 243 238 235 233 232 233 236 239 239 236 232 231 230 230 231 232 234 235 235 235 235 235 237 238 237 237 238 239 240 240 240 240 239 238 237 239 239 238 238 238 240 243 246
320 320 320 320 320 321 321 321 321 320 319 317 315 312 309 306 305 303 302 300 299 298 298 297 296 294 292 291 289 286 284 282 280 277 271 266 264 263 260 255 250 247 244 240 237 234 232 232 233 236 239 239 237 234 232 230 230 232 234 236 237 237 236 236 236 237 237 238 239 240 241 242 242 241 241 239 238 237 237 237 238 238 240 243 247
320 321 321 321 321 322 322 322 321 320 318 317 314 311 308 306 303 301 299 298 297 298 299 299 297 294 291 289 286 283 280 276 275 274 271 267 262 261 260 256 252 249 245 242 239 235 233 231 231 234 236 237 238 236 232 229 229 231 233 236 237 237 237 236 236 237 237 238 239 240 241 242 243 242 241 239 238 237 237 237 238 239 241 243 247
321 321 321 321 322 322 322 322 321 320 318 317 315 312 310 307 303 301 299 299 301 304 305 304 301 298 295 293 290 285 281 275 270 268 268 266 261 259 259 258 254 250 246 244 241 236 233 231 231 232 233 235 238 238 233 228 227 229 231 234 235 236 236 236 236 237 238 238 239 239 240 242 244 244 242 240 239 238 237 238 239 240 242 244 247
321 321 321 321 322 322 322 322 321 320 319 318 316 315 313 309 306 303 303 305 308 310 309 307 305 302 300 297 294 289 285 279 271 265 262 262 260 258 257 257 255 251 247 244 242 238 233 230 230 231 231 232 236 238 235 231 229 230 231 233 234 234 235 236 236 237 238 239 239 240 241 242 244 245 243 241 241 240 238 238 239 241 242 244 246
321 321 320 321 321 321 322 322 322 321 320 319 318 316 314 312 309 308 309 311 313 312 311 310 308 306 302 299 295 291 287 282 275 266 260 258 257 256 255 255 254 252 248 244 243 240 235 231 230 231 230 230 233 235 235 233 232 233 234 235 235 235 235 236 237 238 239 240 240 241 241 242 243 244 243 242 242 242 241 239 239 241 243 245 246
319 319 319 320 321 322 322 322 323 322 321 320 319 318 316 314 313 312 314 315 315 314 313 312 311 309 305 301 297 292 287 281 276 270 262 257 254 253 253 253 252 251 248 245 242 241 238 233 231 231 230 230 231 232 233 233 233 233 233 235 236 235 235 235 237 238 239 240 241 242 242 242 242 242 242 243 244 244 243 242 241 243 245 247 248
317 317 319 321 321 322 323 323 323 323 322 321 321 319 317 316 315 315 317 318 317 315 314 314 314 312 308 304 299 294 288 281 275 270 266 260 255 251 250 250 250 248 247 245 243 241 240 236 232 231 231 231 230 231 231 232 233 233 233 234 235 235 235 235 236 238 239 239 240 241 241 241 241 241 241 243 245 246 246 245 245 246 248 249 250
316 318 319 321 322 322 323 323 323 323 323 322 322 320 318 317 316 317 318 320 319 317 316 315 316 314 310 306 302 297 291 284 276 270 267 264 259 254 249 248 248 247 245 245 243 241 240 238 234 231 230 231 231 231 230 231 233 234 234 234 235 235 235 235 236 237 238 239 239 240 240 240 241 241 242 243 244 246 247 248 248 249 250 250 251
317 318 319 320 322 323 323 323 324 324 323 323 322 321 319 318 318 318 319 320 320 319 317 316 316 315 311 307 303 299 293 286 280 273 268 266 263 258 252 247 245 245 244 244 244 241 239 238 234 230 229 229 230 231 231 232 234 235 235 235 235 235 235 235 236 237 238 239 239 240 240 241 242 242 243 244 244 244 246 247 248 249 250 251 251
316 317 318 320 322 323 324 324 324 324 324 323 323 322 320 319 319 319 320 321 321 320 317 315 316 315 312 308 304 300 294 287 282 277 272 268 265 261 255 248 243 242 243 244 244 242 239 237 234 229 226 227 229 230 231 232 234 236 235 235 236 237 237 237 238 238 239 240 240 241 241 242 243 243 244 244 244 244 245 246 247 248 249 251 252
315 317 319 321 322 323 324 324 323 324 324 323 322 322 321 320 319 320 321 322 322 320 317 316 316 315 313 310 305 300 295 288 282 278 275 272 269 265 258 250 244 241 241 243 244 242 240 237 234 229 226 225 227 228 229 230 232 234 235 235 237 239 240 239 240 240 240 240 241 242 243 244 245 245 244 244 243 243 244 246 246 247 249 250 252
315 317 319 321 322 323 324 323 323 324 323 322 321 321 320 320 320 321 322 322 322 321 318 317 316 315 313 310 306 301 296 289 283 279 277 275 273 268 260 251 244 240 240 242 243 243 241 238 234 230 226 224 226 227 228 228 230 232 232 233 235 239 241 241 241 241 241 241 242 243 244 245 245 244 243 243 242 242 243 244 246 247 249 249 250
315 317 319 320 321 322 323 323 323 323 323 322 321 320 319 319 320 321 323 323 323 321 319 318 317 315 312 309 305 301 297 290 284 280 278 276 275 271 263 252 245 241 241 243 244 244 243 239 235 230 226 224 224 226 226 228 229 230 231 232 234 238 241 242 244 244 242 242 242 242 243 245 244 243 242 242 242 242 242 242 244 246 248 248 249
315 316 318 319 320 321 322 322 323 323 323 322 321 319 318 319 320 322 323 324 324 322 319 318 317 315 312 309 305 300 296 291 286 281 278 276 275 271 263 253 245 242 243 244 246 246 244 240 236 230 225 223 223 224 226 228 230 232 232 233 235 238 241 244 246 246 245 243 241 241 243 244 244 242 242 245 247 247 246 245 245 247 248 248 247
314 315 317 317 319 320 321 322 322 322 322 322 322 320 319 319 321 322 323 324 323 321 318 317 317 316 313 309 305 300 294 290 286 282 278 275 272 268 260 252 246 244 245 247 247 246 244 240 236 230 226 223 221 222 224 227 230 232 234 235 238 240 243 246 248 249 248 245 243 242 243 245 245 242 242 246 248 246 243 242 244 246 245 244 244
313 315 316 316 318 320 320 321 321 321 322 322 322 321 320 319 320 321 322 322 322 320 318 317 318 317 314 308 303 299 293 289 287 283 278 273 269 264 258 251 247 246 247 248 248 247 243 240 235 229 224 223 222 221 223 225 228 230 233 235 238 241 244 248 250 251 249 247 246 244 243 245 245 242 242 245 246 241 236 233 236 240 240 240 243
Height
5899 5898 5897 5896 5895 5895 5895 5895 5895 5895 5894 5894 5893 5893 5892 5893 5893 5892 5891 5891 5891 5892 5893 5892 5892 5893 5894 5896 5897 5897 5897 5897 5898 5899 5901 5902 5903 5903 5904 5904 5904 5905 5905 5906 5906 5907 5908 5908 5909 5909 5909 5909 5909 5908 5908 5908 5909 5910 5910 5909 5910 5912 5912 5913 5912 5911 5912 5912 5912 5912 5912 5913 5913 5913 5914 5914 5914 5915 5915 5916 5916 5917 5917 5918 5919
5901 5900 5899 5899 5898 5897 5897 5896 5896 5896 5896 5895 5894 5893 5892 5892 5892 5893 5891 5891 5891 5892 5893 5893 5891 5891 5892 5894 5894 5895 5895 5895 5896 5898 5899 5900 5900 5901 5901 5902 5903 5904 5904 5905 5905 5906 5907 5908 5908 5908 5908 5908 5908 5908 5907 5908 5909 5909 5909 5909 5910 5911 5912 5913 5912 5911 5912 5912 5912 5912 5912 5913 5913 5913 5914 5914 5914 5915 5915 5916 5916 5917 5917 5918 5918
5902 5901 5901 5900 5900 5899 5898 5897 5897 5897 5896 5895 5894 5893 5892 5892 5892 5892 5891 5890 5891 5892 5893 5893 5892 5892 5892 5892 5892 5893 5893 5893 5894 5895 5897 5897 5898 5898 5899 5900 5900 5902 5903 5904 5905 5905 5906 5906 5907 5907 5907 5907 5907 5907 5907 5907 5908 5908 5909 5909 5910 5910 5911 5912 5912 5912 5912 5912 5912 5912 5912 5912 5912 5913 5913 5914 5914 5915 5915 5916 5916 5917 5917 5918 5918
5902 5902 5901 5901 5900 5900 5899 5898 5898 5897 5896 5895 5895 5894 5893 5892 5892 5892 5891 5890 5890 5890 5891 5892 5892 5891 5890 5891 5892 5892 5892 5892 5893 5893 5894 5895 5895 5896 5897 5897 5898 5899 5900 5902 5903 5904 5904 5905 5906 5906 5906 5906 5906 5906 5906 5906 5907 5907 5908 5908 5909 5910 5910 5911 5911 5911 5911 5911 5911 5912 5912 5911 5912 5912 5913 5914 5914 5914 5915 5916 5916 5917 5917 5918 5918
5903 5902 5901 5901 5900 5899 5899 5899 5899 5898 5897 5896 5895 5894 5893 5892 5891 5891 5891 5890 5889 5888 5889 5890 5889 5888 5888 5889 5890 5891 5891 5892 5893 5893 5893 5893 5894 5895 5895 5896 5896 5897 5898 5900 5901 5902 5903 5903 5904 5904 5905 5905 5905 5905 5906 5906 5906 5907 5907 5908 5908 5909 5909 5910 5911 5911 5911 5911 5911 5911 5911 5911 5911 5912 5913 5913 5914 5914 5915 5915 5916 5916 5917 5917 5918
5903 5902 5901 5900 5900 5899 5898 5898 5898 5898 5897 5896 5895 5894 5893 5892 5891 5890 5890 5890 5889 5888 5888 5888 5887 5886 5886 5887 5888 5889 5889 5890 5891 5892 5892 5892 5893 5894 5895 5896 5895 5895 5896 5898 5899 5900 5900 5901 5902 5903 5903 5904 5904 5904 5905 5905 5906 5906 5907 5907 5908 5908 5909 5909 5910 5910 5910 5910 5911 5911 5911 5911 5911 5911 5912 5913 5913 5914 5914 5915 5916 5916 5916 5917 5917
5903 5902 5901 5900 5899 5899 5898 5897 5897 5897 5896 5896 5896 5895 5894 5893 5891 5890 5889 5889 5889 5888 5887 5887 5886 5884 5883 5884 5886 5887 5886 5887 5888 5889 5890 5890 5891 5892 5894 5895 5896 5896 5896 5896 5897 5897 5898 5899 5900 5901 5902 5903 5903 5904 5904 5904 5905 5905 5906 5907 5907 5908 5908 5908 5909 5909 5909 5909 5910 5910 5911 5911 5911 5911 5912 5912 5913 5913 5914 5914 5915 5915 5916 5916 5917
5902 5902 5901 5901 5900 5898 5897 5897 5896 5895 5895 5895 5895 5894 5894 5893 5892 5891 5890 5889 5889 5888 5887 5886 5885 5884 5883 5882 5883 5884 5884 5885 5886 5886 5887 5888 5888 5889 5890 5892 5894 5896 5896 5896 5896 5896 5896 5896 5897 5898 5900 5901 5902 5902 5903 5903 5904 5904 5904 5905 5906 5907 5907 5907 5908 5908 5909 5909 5909 5910 5910 5911 5910 5911 5911 5912 5912 5912 5913 5913 5914 5914 5915 5916 5916
5902 5901 5901 5900 5900 5899 5898 5897 5896 5895 5894 5893 5893 5893 5893 5892 5892 5891 5890 5889 5889 5888 5887 5886 5885 5884 5883 5882 5881 5882 5882 5882 5883 5883 5883 5885 5885 5886 5887 5888 5889 5891 5893 5895 5895 5895 5894 5894 5895 5896 5897 5899 5900 5901 5901 5902 5903 5903 5903 5904 5905 5906 5906 5906 5907 5907 5908 5908 5908 5909 5909 5910 5910 5910 5911 5911 5911 5912 5912 5912 5913 5914 5914 5915 5916
5902 5901 5900 5899 5899 5899 5898 5897 5896 5894 5893 5892 5891 5891 5891 5891 5891 5891 5890 5889 5889 5888 5887 5886 5885 5884 5883 5882 5881 5881 5880 5880 5880 5880 5880 5881 5882 5883 5884 5885 5886 5886 5888 5890 5893 5894 5894 5893 5893 5893 5895 5896 5898 5899 5900 5901 5901 5902 5902 5903 5903 5904 5904 5905 5905 5906 5907 5907 5907 5908 5908 5909 5909 5910 5910 5910 5911 5911 5911 5912 5912 5913 5914 5914 5915
5902 5901 5900 5899 5898 5897 5897 5896 5895 5894 5893 5891 5890 5889 5889 5888 5889 5889 5889 5888 5888 5887 5886 5885 5884 5883 5882 5881 5880 5880 5879 5878 5877 5877 5878 5878 5879 5879 5881 5882 5883 5884 5885 5886 5889 5891 5892 5892 5892 5891 5892 5894 5895 5897 5898 5899 5900 5901 5901 5902 5902 5903 5903 5903 5904 5905 5905 5906 5906 5907 5908 5908 5909 5909 5909 5910 5910 5910 5910 5911 5911 5912 5913 5914 5914
5902 5901 5900 5899 5897 5896 5895 5895 5894 5893 5892 5891 5890 5888 5887 5886 5886 5886 5886 5885 5885 5884 5884 5883 5882 5881 5880 5879 5878 5878 5877 5876 5875 5875 5875 5875 5876 5876 5877 5879 5880 5881 5883 5884 5885 5886 5888 5890 5891 5891 5890 5891 5892 5894 5896 5897 5898 5900 5900 5901 5901 5901 5902 5902 5902 5903 5904 5904 5905 5906 5907 5907 5908 5909 5909 5909 5909 5909 5910 5910 5911 5911 5912 5913 5913
5901 5900 5900 5899 5898 5896 5895 5894 5893 5892 5891 5891 5890 5889 5887 5886 5884 5883 5883 5883 5882 5882 5881 5881 5880 5879 5878 5877 5876 5875 5875 5875 5874 5873 5873 5873 5873 5873 5874 5875 5876 5878 5880 5882 5882 5882 5884 5887 5889 5889 5889 5889 5889 5891 5893 5895 5896 5898 5899 5900 5900 5900 5901 5901 5901 5902 5902 5903 5903 5904 5905 5906 5907 5907 5908 5908 5908 5909 5909 5909 5910 5910 5911 5911 5912
5900 5899 5899 5898 5897 5896 5894 5893 5892 5890 5889 5889 5888 5887 5887 5886 5885 5883 5882 5881 5880 5879 5879 5878 5878 5877 5876 5875 5874 5873 5872 5872 5872 5872 5871 5871 5870 5870 5870 5871 5873 5875 5876 5878 5879 5879 5880 5882 5884 5887 5887 5887 5887 5888 5889 5891 5893 5895 5897 5898 5898 5899 5899 5900 5901 5901 5901 5901 5901 5902 5903 5904 5905 5906 5906 5907 5907 5907 5908 5909 5909 5909 5910 5910 5911
5899 5898 5898 5897 5896 5895 5893 5892 5891 5889 5888 5887 5886 5885 5884 5883 5883 5882 5881 5880 5879 5877 5876 5875 5875 5874 5874 5873 5872 5871 5870 5870 5870 5870 5869 5868 5868 5867 5867 5867 5869 5870 5872 5874 5876 5877 5878 5878 5880 5883 5885 5885 5885 5886 5887 5888 5890 5892 5893 5895 5896 5897 5898 5899 5899 5900 5900 5900 5900 5901 5901 5902 5904 5904 5905 5905 5906 5906 5907 5907 5908 5909 5909 5909 5909
5897 5896 5895 5894 5894 5893 5892 5890 5889 5887 5886 5885 5884 5883 5881 5880 5879 5877 5877 5876 5875 5875 5874 5873 5872 5871 5870 5870 5870 5869 5868 5867 5867 5867 5866 5865 5865 5864 5864 5864 5865 5866 5868 5869 5872 5874 5875 5876 5877 5878 5880 5882 5883 5884 5884 5885 5886 5888 5890 5892 5893 5895 5896 5897 5898 5899 5899 5900 5900 5900 5900 5900 5902 5903 5903 5904 5905 5905 5905 5906 5907 5907 5908 5908 5908
5894 5893 5892 5891 5890 5890 5889 5887 5886 5885 5884 5883 5882 5881 5880 5878 5877 5875 5873 5871 5870 5869 5868 5867 5868 5867 5867 5866 5866 5866 5866 5864 5863 5863 5862 5862 5861 5861 5861 5861 5861 5862 5863 5865 5868 5870 5872 5873 5874 5875 5876 5878 5880 5882 5882 5883 5884 5885 5886 5888 5890 5891 5893 5895 5896 5897 5898 5898 5899 5899 5899 5899 5900 5901 5902 5902 5903 5903 5904 5904 5905 5906 5906 5906 5906
5891 5890 5889 5888 5887 5886 5885 5884 5883 5881 5880 5879 5879 5878 5877 5876 5875 5874 5872 5870 5868 5866 5864 5862 5861 5861 5861 5861 5862 5863 5863 5862 5860 5859 5859 5858 5857 5857 5858 5858 5858 5858 5859 5860 5863 5866 5869 5870 5871 5872 5873 5874 5876 5879 5880 5881 5882 5883 5884 5885 5886 5888 5890 5892 5893 5894 5895 5896 5897 5897 5897 5898 5898 5899 5900 5901 5902 5902 5902 5903 5903 5904 5904 5904 5905
5888 5887 5886 5884 5883 5882 5881 5880 5879 5878 5877 5876 5874 5873 5873 5872 5871 5870 5869 5868 5867 5865 5864 5862 5859 5857 5856 5856 5856 5856 5857 5857 5857 5856 5855 5854 5854 5854 5855 5855 5854 5854 5854 5855 5857 5860 5863 5865 5867 5869 5869 5871 5873 5875 5877 5879 5880 5882 5882 5883 5883 5885 5887 5888 5889 5891 5892 5893 5895 5896 5896 5896 5897 5898 5898 5899 5900 5900 5901 5901 5901 5902 5902 5903 5903
5886 5885 5883 5882 5881 5880 5878 5877 5875 5874 5873 5871 5870 5869 5868 5867 5866 5865 5865 5864 5863 5862 5861 5860 5858 5857 5855 5853 5852 5851 5851 5852 5852 5851 5851 5851 5850 5850 5851 5851 5851 5850 5849 5850 5852 5854 5856 5859 5862 5865 5866 5868 5869 5871 5873 5875 5877 5878 5880 5881 5881 5883 5884 5886 5887 5888 5889 5890 5892 5893 5894 5895 5895 5896 5897 5898 5898 5899 5899 5899 5900 5900 5900 5901 5902
5884 5882 5881 5879 5878 5877 5876 5874 5873 5871 5870 5868 5866 5865 5864 5863 5862 5860 5859 5858 5857 5856 5856 5855 5854 5853 5852 5850 5849 5848 5847 5846 5846 5846 5846 5846 5846 5846 5846 5847 5846 5846 5845 5846 5848 5850 5852 5854 5857 5859 5862 5864 5865 5867 5869 5870 5872 5874 5876 5877 5879 5880 5882 5883 5884 5886 5887 5888 5889 5890 5891 5892 5894 5895 5895 5896 5896 5897 5898 5898 5898 5898 5899 5899 5900
5883 5881 5880 5878 5876 5874 5872 5871 5869 5867 5866 5865 5863 5862 5860 5859 5858 5856 5855 5853 5852 5851 5850 5849 5848 5847 5846 5845 5845 5844 5843 5842 5842 5841 5841 5841 5841 5841 5841 5842 5841 5841 5842 5843 5844 5845 5847 5850 5852 5854 5857 5860 5861 5863 5865 5866 5868 5870 5872 5873 5875 5877 5879 5880 5882 5883 5884 5885 5886 5888 5889 5889 5891 5893 5893 5894 5894 5895 5896 5896 5896 5896 5897 5897 5898
5882 5880 5879 5877 5875 5872 5870 5868 5865 5863 5862 5861 5860 5858 5857 5855 5854 5852 5850 5849 5847 5846 5844 5843 5842 5841 5840 5839 5839 5839 5838 5838 5837 5837 5837 5837 5837 5837 5837 5837 5838 5838 5838 5839 5840 5841 5842 5845 5848 5850 5852 5855 5857 5858 5861 5863 5865 5866 5868 5869 5871 5873 5875 5877 5878 5880 5880 5882 5883 5885 5886 5887 5888 5889 5890 5891 5892 5892 5893 5893 5894 5894 5894 5895 5896
5880 5878 5876 5874 5872 5870 5868 5866 5864 5861 5859 5857 5855 5853 5851 5850 5848 5847 5845 5843 5842 5840 5839 5838 5837 5835 5834 5833 5833 5833 5833 5833 5833 5833 5833 5832 5833 5833 5833 5833 5834 5834 5835 5835 5836 5836 5838 5841 5844 5846 5848 5850 5852 5854 5857 5860 5862 5863 5864 5865 5866 5868 5870 5872 5874 5875 5876 5878 5879 5881 5882 5883 5885 5886 5887 5888 5889 5890 5890 5891 5891 5892 5892 5893 5894
5876 5874 5872 5871 5869 5867 5866 5864 5862 5859 5857 5855 5852 5850 5847 5844 5842 5841 5839 5837 5835 5833 5832 5831 5830 5829 5828 5827 5827 5827 5827 5828 5828 5828 5828 5828 5828 5828 5829 5829 5830 5830 5830 5831 5831 5832 5834 5836 5839 5842 5844 5846 5848 5850 5853 5856 5858 5860 5861 5862 5863 5865 5866 5868 5869 5871 5872 5874 5876 5877 5878 5879 5881 5883 5884 5884 5885 5886 5887 5888 5888 5889 5890 5891 5892
5872 5870 5868 5867 5865 5863 5862 5860 5858 5856 5854 5851 5849 5846 5844 5841 5838 5835 5833 5831 5829 5827 5825 5824 5823 5823 5822 5822 5821 5821 5821 5822 5822 5823 5823 5824 5824 5824 5824 5825 5825 5826 5826 5827 5828 5828 5830 5832 5834 5837 5840 5843 5845 5847 5849 5852 5854 5856 5858 5860 5862 5863 5864 5865 5866 5867 5869 5871 5873 5874 5875 5876 5878 5880 5881 5881 5882 5883 5884 5885 5886 5886 5887 5889 5890
5869 5867 5865 5863 5861 5859 5858 5856 5854 5852 5850 5848 5845 5843 5840 5837 5834 5831 5828 5826 5824 5822 5820 5818 5817 5816 5816 5816 5815 5815 5815 5816 5817 5817 5818 5818 5818 5819 5819 5820 5821 5822 5823 5823 5824 5825 5826 5828 5830 5832 5835 5838 5840 5843 5845 5848 5850 5852 5854 5857 5859 5860 5862 5862 5863 5864 5866 5867 5869 5871 5872 5873 5874 5876 5877 5878 5879 5880 5881 5882 5883 5883 5884 5886 5887
5867 5865 5863 5860 5858 5856 5854 5852 5850 5848 5846 5844 5841 5838 5836 5833 5831 5828 5825 5822 5820 5818 5816 5814 5812 5811 5811 5811 5810 5810 5810 5810 5811 5812 5812 5813 5813 5813 5814 5815 5817 5818 5818 5818 5819 5821 5822 5824 5825 5828 5830 5833 5836 5839 5841 5843 5845 5848 5850 5852 5854 5856 5858 5860 5861 5862 5863 5864 5866 5867 5869 5870 5871 5872 5873 5875 5876 5877 5878 5879 5880 5880 5881 5883 5884
5864 5862 5860 5857 5855 5852 5850 5847 5846 5844 5842 5839 5837 5834 5831 5829 5826 5824 5822 5820 5817 5815 5813 5811 5810 5808 5807 5806 5806 5805 5805 5805 5806 5806 5807 5807 5808 5808 5809 5811 5812 5813 5814 5814 5815 5816 5818 5819 5821 5823 5826 5828 5831 5834 5837 5839 5841 5843 5845 5848 5850 5852 5854 5856 5858 5860 5861 5862 5863 5864 5865 5866 5867 5868 5870 5871 5873 5874 5875 5876 5876 5878 5879 5880 5881
5861 5859 5856 5854 5852 5850 5847 5845 5842 5840 5838 5835 5833 5830 5828 5825 5823 5821 5819 5817 5815 5813 5811 5809 5807 5806 5804 5803 5803 5802 5801 5801 5801 5801 5802 5802 5802 5803 5804 5806 5807 5808 5809 5810 5811 5812 5814 5815 5817 5819 5821 5823 5826 5829 5831 5834 5836 5838 5841 5843 5845 5848 5850 5852 5854 5856 5858 5859 5860 5861 5862 5863 5864 5865 5867 5868 5870 5871 5872 5872 5873 5874 5876 5877 5878
5858 5856 5853 5851 5849 5847 5845 5842 5840 5837 5834 5832 5829 5827 5824 5822 5820 5818 5816 5814 5812 5810 5808 5806 5805 5803 5802 5800 5800 5799 5798 5798 5797 5797 5797 5797 5798 5798 5799 5801 5802 5803 5804 5806 5807 5809 5810 5811 5812 5814 5816 5818 5821 5823 5825 5827 5830 5832 5835 5837 5840 5842 5845 5847 5850 5852 5854 5855 5856 5857 5858 5859 5860 5862 5864 5865 5866 5867 5868 5869 5870 5871 5872 5873 5875
5855 5853 5851 5848 5846 5844 5842 5840 5837 5834 5831 5829 5826 5823 5821 5818 5817 5815 5813 5811 5809 5807 5805 5804 5802 5800 5799 5797 5796 5796 5795 5794 5794 5794 5793 5793 5794 5794 5795 5796 5797 5798 5799 5801 5802 5804 5805 5806 5807 5809 5811 5813 5816 5817 5819 5821 5824 5826 5828 5831 5834 5836 5839 5842 5845 5847 5849 5851 5852 5853 5854 5856 5857 5858 5860 5861 5862 5864 5865 5866 5867 5868 5869 5870 5871
5852 5850 5848 5846 5844 5841 5839 5837 5834 5831 5828 5825 5823 5820 5818 5815 5814 5812 5810 5808 5806 5804 5802 5801 5799 5797 5796 5794 5793 5792 5791 5790 5790 5790 5790 5790 5790 5790 5790 5791 5792 5793 5794 5796 5798 5799 5801 5802 5802 5804 5805 5808 5810 5812 5814 5816 5819 5821 5824 5826 5828 5831 5834 5837 5840 5842 5844 5846 5847 5849 5850 5852 5854 5855 5856 5857 5859 5860 5861 5863 5864 5865 5866 5866 5867
5850 5848 5845 5843 5841 5839 5836 5833 5831 5828 5825 5822 5819 5817 5814 5812 5810 5809 5806 5804 5803 5801 5799 5798 5796 5794 5792 5791 5790 5789 5788 5787 5786 5786 5786 5786 5786 5786 5786 5787 5788 5789 5790 5792 5793 5795 5796 5798 5799 5800 5801 5802 5804 5806 5809 5811 5814 5817 5820 5821 5824 5827 5830 5833 5835 5837 5839 5841 5843 5844 5846 5848 5850 5851 5852 5854 5855 5857 5858 5860 5861 5861 5862 5863 5864
5847 5845 5842 5840 5838 5835 5833 5830 5827 5824 5821 5818 5815 5813 5810 5808 5806 5805 5803 5801 5799 5797 5795 5794 5792 5790 5789 5788 5787 5786 5785 5783 5783 5782 5782 5782 5781 5781 5782 5783 5784 5785 5786 5787 5789 5790 5792 5793 5795 5796 5797 5798 5800 5801 5804 5806 5809 5812 5815 5817 5820 5823 5826 5828 5831 5833 5835 5837 5838 5840 5842 5844 5846 5848 5849 5850 5852 5853 5854 5855 5856 5857 5858 5860 5861
5844 5842 5839 5837 5834 5832 5829 5826 5823 5820 5817 5814 5812 5809 5807 5804 5802 5801 5799 5797 5795 5793 5792 5790 5788 5786 5784 5783 5782 5782 5781 5780 5779 5778 5778 5778 5777 5777 5777 5779 5780 5781 5782 5783 5784 5786 5788 5789 5791 5792 5794 5795 5795 5796 5799 5802 5804 5807 5809 5812 5815 5819 5821 5824 5826 5828 5830 5832 5834 5835 5838 5840 5842 5844 5845 5847 5848 5849 5850 5851 5853 5854 5855 5857 5858
5840 5838 5835 5833 5831 5828 5825 5823 5820 5817 5814 5811 5808 5806 5803 5801 5799 5797 5795 5793 5792 5790 5788 5786 5783 5781 5779 5778 5777 5776 5776 5775 5775 5774 5774 5773 5773 5773 5773 5774 5775 5776 5778 5779 5780 5781 5784 5786 5787 5788 5789 5791 5791 5792 5794 5797 5800 5802 5804 5807 5810 5813 5816 5818 5821 5823 5824 5826 5829 5831 5833 5834 5837 5839 5841 5842 5843 5844 5846 5848 5850 5851 5853 5854 5855
5837 5834 5832 5829 5827 5824 5822 5819 5816 5813 5810 5807 5805 5802 5799 5797 5795 5793 5791 5790 5788 5785 5783 5781 5778 5776 5774 5773 5772 5771 5770 5770 5770 5769 5769 5769 5769 5769 5769 5769 5770 5772 5773 5774 5775 5777 5779 5781 5783 5784 5785 5786 5787 5789 5791 5793 5796 5798 5800 5802 5805 5808 5810 5813 5815 5817 5819 5821 5823 5825 5827 5829 5832 5834 5836 5837 5839 5840 5842 5844 5846 5847 5849 5850 5851
5833 5831 5828 5826 5823 5821 5818 5815 5812 5809 5806 5803 5801 5798 5795 5793 5791 5789 5787 5785 5783 5781 5778 5776 5774 5772 5770 5768 5767 5766 5765 5764 5764 5764 5764 5765 5765 5765 5765 5765 5766 5767 5768 5770 5771 5772 5774 5777 5778 5780 5781 5782 5784 5785 5788 5790 5792 5793 5796 5798 5800 5803 5805 5807 5809 5811 5813 5815 5818 5820 5822 5825 5827 5829 5830 5833 5834 5836 5837 5840 5841 5842 5844 5847 5847
5830 5828 5826 5823 5820 5817 5814 5811 5809 5806 5803 5800 5797 5794 5792 5789 5787 5785 5783 5781 5778 5776 5774 5772 5770 5768 5766 5764 5762 5761 5760 5759 5759 5759 5759 5760 5760 5760 5761 5761 5761 5762 5764 5765 5767 5768 5770 5772 5773 5775 5777 5779 5780 5782 5784 5786 5788 5790 5792 5794 5796 5798 5800 5802 5804 5806 5808 5811 5813 5815 5817 5819 5822 5823 5825 5827 5829 5831 5833 5835 5836 5838 5841 5842 5841
5827 5825 5823 5820 5817 5814 5811 5808 5805 5802 5799 5796 5793 5791 5788 5785 5783 5781 5779 5777 5774 5772 5770 5768 5766 5763 5761 5759 5757 5756 5755 5754 5754 5754 5754 5754 5755 5756 5757 5757 5757 5758 5759 5760 5762 5763 5765 5766 5768 5770 5773 5775 5777 5779 5781 5783 5785 5787 5788 5790 5792 5794 5795 5797 5799 5801 5804 5806 5808 5810 5812 5814 5815 5817 5819 5821 5824 5826 5827 5829 5832 5835 5836 5836 5836
5824 5822 5819 5817 5813 5810 5807 5804 5801 5798 5795 5793 5790 5787 5784 5782 5780 5778 5775 5773 5770 5768 5765 5764 5761 5759 5757 5754 5753 5751 5750 5749 5749 5749 5749 5750 5750 5751 5752 5753 5753 5753 5754 5755 5757 5758 5760 5761 5763 5766 5769 5771 5773 5775 5777 5779 5781 5783 5785 5786 5788 5789 5791 5793 5795 5797 5799 5801 5803 5804 5806 5807 5809 5811 5814 5816 5819 5820 5822 5825 5828 5830 5831 5831 5832
5821 5818 5816 5813 5810 5807 5804 5800 5797 5795 5792 5789 5786 5784 5781 5778 5776 5774 5772 5769 5766 5764 5761 5759 5757 5755 5752 5750 5748 5747 5745 5745 5744 5744 5745 5745 5745 5746 5747 5748 5749 5749 5750 5751 5752 5754 5755 5757 5758 5761 5764 5767 5769 5771 5773 5775 5777 5779 5780 5782 5784 5785 5787 5789 5791 5793 5794 5796 5797 5799 5800 5802 5803 5806 5809 5811 5814 5815 5818 5821 5823 5825 5826 5826 5827
5817 5815 5812 5810 5807 5804 5800 5797 5794 5791 5788 5785 5783 5780 5777 5775 5773 5770 5768 5765 5763 5760 5757 5755 5753 5751 5748 5746 5744 5743 5741 5740 5740 5740 5740 5740 5740 5741 5742 5743 5744 5745 5745 5746 5747 5749 5751 5752 5754 5756 5759 5762 5764 5767 5769 5771 5773 5774 5776 5778 5780 5781 5783 5785 5787 5788 5789 5791 5792 5794 5795 5797 5798 5801 5803 5806 5809 5811 5813 5816 5818 5819 5820 5821 5821
5814 5812 5809 5806 5803 5800 5797 5793 5790 5787 5784 5781 5779 5776 5774 5771 5769 5767 5764 5762 5759 5756 5754 5751 5749 5747 5745 5743 5740 5739 5737 5736 5735 5735 5735 5735 5736 5736 5737 5738 5739 5740 5741 5742 5743 5744 5746 5747 5749 5751 5754 5757 5759 5762 5764 5766 5768 5770 5772 5774 5775 5777 5779 5781 5783 5784 5785 5787 5788 5789 5791 5792 5794 5796 5798 5801 5804 5806 5808 5810 5811 5813 5814 5815 5816
5810 5808 5805 5803 5800 5796 5793 5790 5787 5784 5781 5778 5775 5772 5770 5768 5765 5763 5760 5758 5755 5753 5750 5748 5745 5743 5741 5739 5737 5735 5733 5732 5731 5731 5731 5731 5731 5731 5732 5733 5734 5736 5737 5737 5738 5740 5741 5743 5744 5746 5749 5752 5754 5757 5760 5762 5764 5766 5768 5769 5771 5773 5775 5777 5778 5780 5781 5783 5784 5785 5786 5788 5789 5791 5793 5796 5798 5800 5802 5804 5806 5807 5809 5810 5811
5807 5804 5802 5799 5796 5793 5790 5787 5784 5781 5778 5775 5772 5769 5766 5764 5761 5759 5757 5754 5751 5749 5746 5744 5742 5739 5736 5734 5732 5731 5729 5728 5727 5726 5726 5726 5727 5727 5727 5728 5729 5731 5732 5733 5734 5736 5737 5738 5740 5742 5744 5747 5750 5753 5756 5758 5760 5762 5763 5765 5767 5769 5771 5772 5774 5775 5777 5779 5780 5781 5783 5784 5785 5787 5789 5791 5793 5794 5796 5799 5801 5802 5804 5805 5805
5803 5801 5798 5796 5793 5790 5787 5784 5781 5778 5775 5772 5769 5766 5763 5760 5758 5755 5753 5750 5748 5745 5742 5740 5738 5735 5732 5730 5728 5726 5725 5724 5723 5722 5722 5722 5722 5722 5723 5724 5725 5727 5728 5729 5731 5732 5733 5734 5736 5738 5740 5743 5746 5750 5752 5754 5756 5758 5760 5762 5764 5766 5767 5768 5770 5771 5773 5775 5777 5778 5779 5780 5781 5782 5784 5786 5788 5790 5792 5794 5796 5797 5798 5799 5800
5800 5797 5795 5792 5789 5787 5784 5781 5778 5775 5772 5769 5766 5763 5760 5757 5754 5752 5749 5747 5744 5741 5738 5736 5734 5731 5729 5726 5724 5722 5721 5720 5719 5718 5718 5718 5718 5718 5719 5720 5721 5723 5724 5726 5727 5728 5729 5731 5732 5734 5736 5739 5742 5746 5749 5751 5753 5755 5757 5759 5761 5762 5763 5765 5766 5768 5769 5771 5773 5774 5775 5776 5777 5778 5781 5782 5784 5786 5787 5790 5791 5792 5793 5795 5795
5796 5794 5791 5789 5786 5783 5780 5777 5774 5771 5769 5766 5763 5760 5756 5753 5751 5748 5746 5743 5741 5738 5735 5732 5730 5728 5725 5723 5720 5718 5717 5716 5715 5715 5714 5714 5714 5714 5715 5716 5717 5719 5720 5722 5723 5724 5725 5726 5728 5730 5732 5735 5739 5743 5746 5748 5750 5752 5754 5756 5757 5759 5760 5761 5762 5764 5765 5767 5769 5770 5772 5772 5773 5775 5777 5779 5780 5781 5782 5785 5787 5787 5787 5789 5791
5792 5790 5788 5785 5782 5780 5777 5774 5771 5768 5765 5763 5760 5756 5753 5750 5747 5745 5742 5740 5737 5735 5732 5729 5726 5724 5721 5719 5717 5715 5713 5713 5712 5711 5711 5710 5710 5711 5711 5712 5714 5715 5716 5718 5719 5720 5721 5722 5724 5726 5729 5732 5736 5739 5742 5744 5747 5749 5751 5753 5754 5756 5757 5758 5759 5760 5761 5762 5765 5767 5768 5770 5771 5773 5775 5776 5777 5777 5778 5782 5783 5782 5783 5785 5786